Location: Les Moreaux
(47.2278°N, 1.4966°E)
Time: 22:18:57
(UTC+00:00)

Cosmos 773 Rocket - Pass Details

Date: 19 May 2025
Orbit: 742 x 772 km, 74.1° (Epoch: 18 June)

Event Time Altitude Azimuth Distance (km) Brightness Sun altitude
Exits shadow 21:51:30 19° 198° (SSW) 1,715 5.4 -17.7°
Maximum altitude 21:55:12 85° 111° (ESE) 754 3.9 -18.0°
Drops below altitude 10° 22:00:20 10° 23° (NNE) 2,265 7.0 -18.4°
Sets 22:02:42 0° 23° (NNE) 3,192 7.8 -18.5°
